Погода в Макасаре

Индонезия     5°10′04″S   119°27′08″E
темп.,
°C
ветер,
м/с
пор.,
м/с
влажн.,
%
обл.,
%
осадки,
мм/ч
давл.,
гПа
погр.,
м
18 августа, чт
чт1823:00+24юв118312 0.0 101223
02:00+23в117957 0.0 101018
05:00+23юв118055 0.0 101018
08:00+26св117073 0.0 1011232
11:00+30ссз115767 0.1 10111153
14:00+31с435698 0.1 10081041
17:00+29зсз226452 0.1 1008628
20:00+26ссв11775 0.1 101023
19 августа, пт
пт1923:00+24в118117 0.0 101119
02:00+24всв22814 0.0 100926
05:00+23вюв11820 0.0 100916
08:00+26св11701 0.0 1011294
11:00+31з22505 0.0 10091249
14:00+32зюз53558 0.0 10071279
17:00+30юз22580 0.0 1006705
20:00+25св22740 0.0 100967
20 августа, сб
сб2023:00+24ссв117578 0.0 101018
02:00+23юв1174100 0.0 100919
05:00+23всв117862 0.0 100917
08:00+26зсз00695 0.0 1011261
11:00+30з325520 0.0 10101404
14:00+32з645222 0.0 10061311
17:00+30сз33572 0.0 1006672
20:00+25в22670 0.0 100927
21 августа, вс
вс2123:00+23всв11685 0.0 100919
02:00+22вюв116947 0.0 100815
05:00+23вюв1171100 0.0 100915
08:00+26юв116232 0.0 1010237
11:00+32зюз234923 0.0 10081284
14:00+30зсз655975 0.1 1006656
17:00+29з226130 0.1 1006590
20:00+26ююв117761 0.1 100822
22 августа, пн
пн2223:00+24всв227814 0.0 100925
02:00+24вюв228092 0.1 100823
05:00+24вюв118380 0.1 100917
08:00+27св127095 0.2 1010325
11:00+32з3254100 0.0 10091359
14:00+32зсз535493 0.1 10061178
17:00+30з235995 0.1 1006556
20:00+27в2369100 0.2 100999